• In Schweiz
  • Länderverzeichnis
  • Für 7 Tage
  • Wassertemperatur
  • Satellitenkarten
  • Wetterkarte
  • Widgets
  • user-avatar
    Anmelden

    Stündliche Wetter Sion

    Heute, 20 Oktober, Samstag

    Zeit Temperatur Niederschläge Wind Luftdruck Luftfeuchtigkeit
    00:00 +14°C° 0 mm 1 m/S 716 mmHg 92%
    01:00 +13°C° 0 mm 1 m/S 716 mmHg 91%
    02:00 +13°C° 0 mm 1 m/S 716 mmHg 91%
    03:00 +13°C° 0 mm 1 m/S 716 mmHg 90%
    04:00 +13°C° 0 mm 1 m/S 717 mmHg 89%
    05:00 +13°C° 0 mm 1 m/S 717 mmHg 89%
    06:00 +12°C° 0 mm 1 m/S 718 mmHg 88%
    07:00 +15°C° 0 mm 1 m/S 718 mmHg 77%
    08:00 +18°C° 0 mm 1 m/S 718 mmHg 65%
    09:00 +20°C° 0 mm 1 m/S 719 mmHg 54%
    10:00 +20°C° 0 mm 2 m/S 719 mmHg 51%
    11:00 +21°C° 0 mm 2 m/S 719 mmHg 49%
    12:00 +21°C° 0 mm 2 m/S 719 mmHg 46%
    13:00 +21°C° 0 mm 2 m/S 719 mmHg 49%
    14:00 +20°C° 0 mm 2 m/S 718 mmHg 53%
    15:00 +20°C° 0 mm 2 m/S 718 mmHg 56%
    16:00 +18°C° 0 mm 2 m/S 718 mmHg 66%
    17:00 +16°C° 0 mm 2 m/S 718 mmHg 75%
    18:00 +13°C° 0 mm 1 m/S 718 mmHg 84%
    19:00 +13°C° 0 mm 1 m/S 718 mmHg 81%
    20:00 +13°C° 0 mm 1 m/S 718 mmHg 78%
    21:00 +13°C° 0 mm 1 m/S 718 mmHg 76%
    22:00 +13°C° 0 mm 1 m/S 718 mmHg 71%
    23:00 +13°C° 0 mm 1 m/S 718 mmHg 67%

    Morgen, 21 Oktober, Sonntag

    Zeit Temperatur Niederschläge Wind Luftdruck Luftfeuchtigkeit
    00:00 +13°C° 0 mm 1 m/S 718 mmHg 62%
    01:00 +12°C° 0 mm 1 m/S 717 mmHg 58%
    02:00 +12°C° 0 mm 1 m/S 717 mmHg 54%
    03:00 +12°C° 0 mm 1 m/S 717 mmHg 50%
    04:00 +12°C° 0 mm 1 m/S 717 mmHg 48%
    05:00 +12°C° 0 mm 2 m/S 717 mmHg 46%
    06:00 +12°C° 0 mm 2 m/S 717 mmHg 44%
    07:00 +14°C° 0 mm 2 m/S 717 mmHg 42%
    08:00 +17°C° 0 mm 2 m/S 717 mmHg 40%
    09:00 +19°C° 0 mm 2 m/S 717 mmHg 37%
    10:00 +20°C° 0 mm 2 m/S 716 mmHg 37%
    11:00 +20°C° 0 mm 3 m/S 716 mmHg 37%
    12:00 +21°C° 0 mm 3 m/S 716 mmHg 37%
    13:00 +20°C° 0 mm 3 m/S 715 mmHg 42%
    14:00 +20°C° 0 mm 3 m/S 715 mmHg 47%
    15:00 +19°C° 0 mm 3 m/S 714 mmHg 52%
    16:00 +17°C° 0 mm 2 m/S 714 mmHg 63%
    17:00 +14°C° 0 mm 2 m/S 715 mmHg 74%
    18:00 +12°C° 0 mm 2 m/S 715 mmHg 85%
    19:00 +12°C° 0 mm 2 m/S 715 mmHg 84%
    20:00 +10°C° 0 mm 2 m/S 715 mmHg 82%
    21:00 +10°C° 0 mm 2 m/S 715 mmHg 81%
    22:00 +10°C° 0 mm 2 m/S 715 mmHg 81%
    23:00 +10°C° 0 mm 2 m/S 715 mmHg 82%

    übermorgen, 22 Oktober, Montag

    Zeit Temperatur Niederschläge Wind Luftdruck Luftfeuchtigkeit
    00:00 +10°C° 0 mm 2 m/S 715 mmHg 82%
    01:00 +10°C° 0 mm 1 m/S 715 mmHg 82%
    02:00 +10°C° 0 mm 1 m/S 715 mmHg 81%
    03:00 +10°C° 0 mm 1 m/S 715 mmHg 81%
    04:00 +9°C° 0 mm 1 m/S 715 mmHg 77%
    05:00 +9°C° 0 mm 1 m/S 715 mmHg 73%
    06:00 +9°C° 0 mm 1 m/S 715 mmHg 69%
    07:00 +11°C° 0 mm 1 m/S 716 mmHg 59%
    08:00 +13°C° 0 mm 2 m/S 716 mmHg 50%
    09:00 +15°C° 0 mm 2 m/S 717 mmHg 40%
    10:00 +16°C° 0 mm 2 m/S 717 mmHg 40%
    11:00 +16°C° 0 mm 3 m/S 717 mmHg 39%
    12:00 +17°C° 0 mm 3 m/S 716 mmHg 39%
    13:00 +16°C° 0 mm 3 m/S 716 mmHg 44%
    14:00 +16°C° 0 mm 3 m/S 716 mmHg 49%
    15:00 +14°C° 0 mm 3 m/S 716 mmHg 54%
    16:00 +12°C° 0 mm 3 m/S 716 mmHg 64%
    17:00 +10°C° 0 mm 3 m/S 717 mmHg 74%
    18:00 +8°C° 0 mm 2 m/S 717 mmHg 84%
    19:00 +8°C° 0 mm 2 m/S 718 mmHg 82%
    20:00 +8°C° 0 mm 2 m/S 718 mmHg 81%
    21:00 +8°C° 0 mm 2 m/S 719 mmHg 79%
    22:00 +8°C° 0 mm 2 m/S 719 mmHg 77%
    23:00 +8°C° 0 mm 2 m/S 719 mmHg 74%

    23 Oktober, Dienstag

    Zeit Temperatur Niederschläge Wind Luftdruck Luftfeuchtigkeit
    00:00 +8°C° 0 mm 2 m/S 719 mmHg 72%
    01:00 +8°C° 0 mm 2 m/S 719 mmHg 70%
    02:00 +8°C° 0 mm 2 m/S 719 mmHg 69%
    03:00 +7°C° 0 mm 2 m/S 719 mmHg 67%
    04:00 +7°C° 0 mm 2 m/S 719 mmHg 69%
    05:00 +7°C° 0 mm 2 m/S 719 mmHg 71%
    06:00 +7°C° 0 mm 2 m/S 719 mmHg 73%
    07:00 +9°C° 0 mm 2 m/S 719 mmHg 65%
    08:00 +12°C° 0 mm 2 m/S 719 mmHg 57%
    09:00 +13°C° 0 mm 3 m/S 719 mmHg 49%
    10:00 +14°C° 0 mm 3 m/S 719 mmHg 46%
    11:00 +16°C° 0 mm 3 m/S 719 mmHg 44%
    12:00 +17°C° 0 mm 3 m/S 718 mmHg 42%
    13:00 +16°C° 0 mm 3 m/S 718 mmHg 48%
    14:00 +16°C° 0 mm 3 m/S 718 mmHg 53%
    15:00 +14°C° 0 mm 3 m/S 718 mmHg 59%
    16:00 +12°C° 0 mm 3 m/S 718 mmHg 69%
    17:00 +10°C° 0 mm 2 m/S 718 mmHg 79%
    18:00 +9°C° 0 mm 2 m/S 718 mmHg 89%
    19:00 +9°C° 0 mm 2 m/S 718 mmHg 86%
    20:00 +9°C° 0 mm 2 m/S 719 mmHg 83%
    21:00 +9°C° 0 mm 2 m/S 719 mmHg 80%
    22:00 +9°C° 0 mm 2 m/S 718 mmHg 78%
    23:00 +9°C° 0 mm 2 m/S 718 mmHg 76%

    24 Oktober, Mittwoch

    Zeit Temperatur Niederschläge Wind Luftdruck Luftfeuchtigkeit
    00:00 +9°C° 0 mm 2 m/S 718 mmHg 74%
    01:00 +9°C° 0 mm 2 m/S 718 mmHg 74%
    02:00 +9°C° 0 mm 2 m/S 718 mmHg 73%
    03:00 +9°C° 0 mm 2 m/S 718 mmHg 73%
    04:00 +10°C° 0 mm 3 m/S 718 mmHg 76%
    05:00 +10°C° 0 mm 3 m/S 718 mmHg 78%
    06:00 +10°C° 0 mm 3 m/S 718 mmHg 80%
    07:00 +12°C° 0 mm 3 m/S 718 mmHg 78%
    08:00 +13°C° 0 mm 3 m/S 718 mmHg 77%
    09:00 +15°C° 0 mm 4 m/S 718 mmHg 75%
    10:00 +17°C° 0 mm 4 m/S 718 mmHg 73%
    11:00 +18°C° 0 mm 4 m/S 717 mmHg 71%
    12:00 +19°C° 0 mm 4 m/S 717 mmHg 69%
    13:00 +18°C° 0 mm 4 m/S 717 mmHg 70%
    14:00 +18°C° 0 mm 4 m/S 717 mmHg 72%
    15:00 +18°C° 0 mm 4 m/S 717 mmHg 74%
    16:00 +15°C° 0 mm 4 m/S 717 mmHg 80%
    17:00 +13°C° 0 mm 3 m/S 717 mmHg 87%
    18:00 +12°C° 0 mm 3 m/S 717 mmHg 93%
    19:00 +12°C° 0 mm 3 m/S 717 mmHg 92%
    20:00 +11°C° 0 mm 3 m/S 717 mmHg 91%
    21:00 +11°C° 0 mm 3 m/S 717 mmHg 90%
    22:00 +12°C° 0 mm 2 m/S 717 mmHg 89%
    23:00 +12°C° 0 mm 2 m/S 717 mmHg 87%

    25 Oktober, Donnerstag

    Zeit Temperatur Niederschläge Wind Luftdruck Luftfeuchtigkeit
    00:00 +12°C° 0 mm 2 m/S 716 mmHg 85%
    01:00 +10°C° 0 mm 2 m/S 716 mmHg 82%
    02:00 +10°C° 0 mm 2 m/S 716 mmHg 79%
    03:00 +10°C° 0 mm 2 m/S 716 mmHg 76%
    04:00 +10°C° 0 mm 2 m/S 716 mmHg 72%
    05:00 +10°C° 0 mm 2 m/S 716 mmHg 68%
    06:00 +10°C° 0 mm 2 m/S 716 mmHg 65%
    07:00 +13°C° 0 mm 2 m/S 716 mmHg 56%
    08:00 +16°C° 0 mm 2 m/S 716 mmHg 48%
    09:00 +19°C° 0 mm 2 m/S 716 mmHg 39%
    10:00 +19°C° 0 mm 2 m/S 716 mmHg 38%
    11:00 +20°C° 0 mm 2 m/S 716 mmHg 37%
    12:00 +21°C° 0 mm 2 m/S 715 mmHg 36%
    13:00 +21°C° 0 mm 2 m/S 715 mmHg 42%
    14:00 +20°C° 0 mm 2 m/S 715 mmHg 49%
    15:00 +19°C° 0 mm 2 m/S 714 mmHg 55%
    16:00 +18°C° 0 mm 1 m/S 714 mmHg 64%
    17:00 +14°C° 0 mm 1 m/S 714 mmHg 72%
    18:00 +12°C° 0 mm 1 m/S 714 mmHg 80%
    19:00 +12°C° 0 mm 1 m/S 714 mmHg 77%
    20:00 +12°C° 0 mm 1 m/S 714 mmHg 73%
    21:00 +11°C° 0 mm 1 m/S 714 mmHg 70%
    22:00 +11°C° 0 mm 1 m/S 714 mmHg 66%
    23:00 +11°C° 0 mm 1 m/S 713 mmHg 62%
    Mehr zeigen